When you browse on this site, cookies collect data to enhance your experience and personalize the content and advertising you see.
Visit our Privacy Policy to learn more. By continuing to use the site, you agree to this use of cookies and data.
  • In Hungary
  • List of Countries
  • For 7 days
  • Water Temperature
  • Satellite Maps
  • Weather Map
  • News
  • Weather Widgets
  • user-avatar
    Login

    Hourly Weather Sofia

    Today, 24 April, Wednesday

    Time Temperature Precipitation Wind Pressure Humidity
    00:00 +7°C° 0 mm 2 mps 714 mmHg 86%
    01:00 +7°C° 0 mm 2 mps 714 mmHg 84%
    02:00 +7°C° 0 mm 1 mps 714 mmHg 82%
    03:00 +7°C° 0 mm 1 mps 714 mmHg 80%
    04:00 +8°C° 0 mm 1 mps 714 mmHg 79%
    05:00 +8°C° 0 mm 1 mps 714 mmHg 77%
    06:00 +9°C° 0 mm 1 mps 715 mmHg 72%
    07:00 +11°C° 0 mm 1 mps 715 mmHg 66%
    08:00 +13°C° 0 mm 1 mps 716 mmHg 62%
    09:00 +15°C° 0 mm 1 mps 716 mmHg 56%
    10:00 +19°C° 0 mm 1 mps 716 mmHg 51%
    11:00 +20°C° 0 mm 2 mps 716 mmHg 46%
    12:00 +21°C° 0 mm 2 mps 716 mmHg 43%
    13:00 +23°C° 0 mm 2 mps 716 mmHg 41%
    14:00 +24°C° 0 mm 2 mps 716 mmHg 39%
    15:00 +24°C° 0 mm 2 mps 716 mmHg 42%
    16:00 +23°C° 0 mm 2 mps 715 mmHg 44%
    17:00 +23°C° 0 mm 2 mps 715 mmHg 46%
    18:00 +20°C° 0 mm 2 mps 715 mmHg 55%
    19:00 +17°C° 0 mm 2 mps 714 mmHg 64%
    20:00 +15°C° 0 mm 2 mps 714 mmHg 73%
    21:00 +14°C° 0 mm 2 mps 714 mmHg 77%
    22:00 +13°C° 0 mm 2 mps 715 mmHg 80%
    23:00 +13°C° 0 mm 1 mps 715 mmHg 83%

    Tomorrow, 25 April, Thursday

    Time Temperature Precipitation Wind Pressure Humidity
    00:00 +12°C° 0 mm 1 mps 715 mmHg 84%
    01:00 +12°C° 0 mm 1 mps 715 mmHg 85%
    02:00 +11°C° 0 mm 1 mps 715 mmHg 86%
    03:00 +11°C° 0 mm 1 mps 715 mmHg 85%
    04:00 +11°C° 0 mm 1 mps 715 mmHg 84%
    05:00 +10°C° 0 mm 1 mps 715 mmHg 84%
    06:00 +12°C° 0 mm 1 mps 715 mmHg 77%
    07:00 +14°C° 0 mm 1 mps 716 mmHg 69%
    08:00 +16°C° 0 mm 1 mps 716 mmHg 62%
    09:00 +19°C° 0 mm 1 mps 716 mmHg 56%
    10:00 +21°C° 0 mm 1 mps 716 mmHg 50%
    11:00 +24°C° 0 mm 1 mps 717 mmHg 43%
    12:00 +24°C° 0 mm 1 mps 716 mmHg 41%
    13:00 +25°C° 0 mm 1 mps 716 mmHg 40%
    14:00 +26°C° 0 mm 1 mps 716 mmHg 38%
    15:00 +25°C° 0.1 mm 1 mps 715 mmHg 41%
    16:00 +25°C° 0.1 mm 1 mps 715 mmHg 44%
    17:00 +24°C° 0.1 mm 2 mps 715 mmHg 47%
    18:00 +21°C° 0.2 mm 2 mps 714 mmHg 56%
    19:00 +19°C° 0.2 mm 2 mps 714 mmHg 65%
    20:00 +17°C° 0.2 mm 2 mps 714 mmHg 74%
    21:00 +16°C° 0.1 mm 2 mps 714 mmHg 78%
    22:00 +15°C° 0.1 mm 2 mps 714 mmHg 81%
    23:00 +14°C° 0.1 mm 1 mps 714 mmHg 84%

    Day after tomorrow, 26 April, Friday

    Time Temperature Precipitation Wind Pressure Humidity
    00:00 +14°C° 0 mm 1 mps 714 mmHg 85%
    01:00 +13°C° 0 mm 1 mps 714 mmHg 86%
    02:00 +13°C° 0 mm 1 mps 714 mmHg 86%
    03:00 +12°C° 0 mm 1 mps 714 mmHg 86%
    04:00 +12°C° 0 mm 1 mps 713 mmHg 86%
    05:00 +12°C° 0 mm 1 mps 713 mmHg 86%
    06:00 +14°C° 0 mm 1 mps 714 mmHg 80%
    07:00 +15°C° 0 mm 1 mps 714 mmHg 74%
    08:00 +18°C° 0 mm 1 mps 714 mmHg 68%
    09:00 +20°C° 0 mm 1 mps 714 mmHg 60%
    10:00 +23°C° 0 mm 1 mps 714 mmHg 53%
    11:00 +25°C° 0 mm 1 mps 715 mmHg 46%
    12:00 +26°C° 0 mm 1 mps 714 mmHg 43%
    13:00 +27°C° 0 mm 1 mps 714 mmHg 39%
    14:00 +28°C° 0 mm 1 mps 714 mmHg 36%
    15:00 +27°C° 0 mm 1 mps 713 mmHg 38%
    16:00 +26°C° 0 mm 1 mps 713 mmHg 40%
    17:00 +25°C° 0 mm 1 mps 712 mmHg 41%
    18:00 +23°C° 0.1 mm 2 mps 712 mmHg 50%
    19:00 +20°C° 0.1 mm 2 mps 712 mmHg 59%
    20:00 +18°C° 0.1 mm 2 mps 712 mmHg 69%
    21:00 +17°C° 0 mm 2 mps 712 mmHg 72%
    22:00 +16°C° 0 mm 2 mps 712 mmHg 76%
    23:00 +15°C° 0 mm 2 mps 712 mmHg 79%

    27 April, Saturday

    Time Temperature Precipitation Wind Pressure Humidity
    00:00 +15°C° 0 mm 2 mps 711 mmHg 82%
    01:00 +14°C° 0 mm 2 mps 711 mmHg 84%
    02:00 +14°C° 0 mm 1 mps 710 mmHg 87%
    03:00 +13°C° 0 mm 1 mps 710 mmHg 88%
    04:00 +13°C° 0 mm 1 mps 710 mmHg 90%
    05:00 +13°C° 0 mm 1 mps 710 mmHg 91%
    06:00 +14°C° 0 mm 1 mps 710 mmHg 85%
    07:00 +16°C° 0 mm 1 mps 710 mmHg 80%
    08:00 +18°C° 0 mm 1 mps 710 mmHg 74%
    09:00 +19°C° 0 mm 2 mps 710 mmHg 66%
    10:00 +21°C° 0 mm 2 mps 710 mmHg 57%
    11:00 +24°C° 0 mm 2 mps 710 mmHg 49%
    12:00 +24°C° 0.4 mm 2 mps 709 mmHg 48%
    13:00 +25°C° 0.4 mm 2 mps 709 mmHg 47%
    14:00 +25°C° 0.4 mm 2 mps 708 mmHg 46%
    15:00 +24°C° 1 mm 2 mps 708 mmHg 52%
    16:00 +23°C° 1 mm 2 mps 707 mmHg 57%
    17:00 +20°C° 1 mm 2 mps 707 mmHg 62%
    18:00 +19°C° 1.6 mm 2 mps 707 mmHg 70%
    19:00 +18°C° 1.6 mm 1 mps 707 mmHg 78%
    20:00 +15°C° 1.6 mm 1 mps 707 mmHg 86%
    21:00 +15°C° 0.2 mm 1 mps 707 mmHg 85%
    22:00 +14°C° 0.2 mm 1 mps 707 mmHg 84%
    23:00 +14°C° 0.2 mm 2 mps 707 mmHg 83%

    28 April, Sunday

    Time Temperature Precipitation Wind Pressure Humidity
    00:00 +13°C° 0 mm 2 mps 707 mmHg 85%
    01:00 +12°C° 0 mm 2 mps 707 mmHg 87%
    02:00 +10°C° 0 mm 2 mps 707 mmHg 89%
    03:00 +10°C° 0 mm 2 mps 707 mmHg 90%
    04:00 +10°C° 0 mm 1 mps 707 mmHg 91%
    05:00 +10°C° 0 mm 1 mps 707 mmHg 92%
    06:00 +10°C° 0 mm 2 mps 707 mmHg 88%
    07:00 +12°C° 0 mm 2 mps 707 mmHg 84%
    08:00 +13°C° 0 mm 2 mps 708 mmHg 79%
    09:00 +15°C° 0 mm 2 mps 708 mmHg 69%
    10:00 +16°C° 0 mm 2 mps 708 mmHg 58%
    11:00 +18°C° 0 mm 2 mps 708 mmHg 48%
    12:00 +19°C° 0 mm 2 mps 708 mmHg 44%
    13:00 +20°C° 0 mm 2 mps 708 mmHg 40%
    14:00 +21°C° 0 mm 2 mps 707 mmHg 36%
    15:00 +21°C° 0 mm 2 mps 707 mmHg 36%
    16:00 +22°C° 0 mm 1 mps 707 mmHg 37%
    17:00 +21°C° 0 mm 1 mps 707 mmHg 38%
    18:00 +19°C° 0 mm 1 mps 707 mmHg 47%
    19:00 +16°C° 0 mm 1 mps 706 mmHg 56%
    20:00 +14°C° 0 mm 1 mps 706 mmHg 65%
    21:00 +13°C° 0 mm 1 mps 706 mmHg 69%
    22:00 +13°C° 0 mm 1 mps 707 mmHg 73%
    23:00 +11°C° 0 mm 0 mps 707 mmHg 78%

    29 April, Monday

    Time Temperature Precipitation Wind Pressure Humidity
    00:00 +11°C° 0 mm 0 mps 706 mmHg 78%
    01:00 +10°C° 0 mm 0 mps 706 mmHg 79%
    02:00 +10°C° 0 mm 0 mps 706 mmHg 80%
    03:00 +10°C° 0 mm 0 mps 706 mmHg 79%
    04:00 +9°C° 0 mm 0 mps 706 mmHg 78%
    05:00 +10°C° 0 mm 1 mps 706 mmHg 77%
    06:00 +11°C° 0 mm 0 mps 706 mmHg 71%
    07:00 +13°C° 0 mm 0 mps 706 mmHg 65%
    08:00 +14°C° 0 mm 0 mps 707 mmHg 59%
    09:00 +16°C° 0 mm 0 mps 707 mmHg 53%
    10:00 +20°C° 0 mm 1 mps 707 mmHg 48%
    11:00 +22°C° 0 mm 1 mps 707 mmHg 42%
    12:00 +22°C° 0.1 mm 1 mps 706 mmHg 43%
    13:00 +22°C° 0.1 mm 1 mps 706 mmHg 44%
    14:00 +22°C° 0.1 mm 1 mps 705 mmHg 45%
    15:00 +21°C° 0.5 mm 1 mps 705 mmHg 49%
    16:00 +19°C° 0.5 mm 2 mps 704 mmHg 52%
    17:00 +19°C° 0.5 mm 2 mps 704 mmHg 56%
    18:00 +17°C° 1.3 mm 2 mps 704 mmHg 62%
    19:00 +15°C° 1.3 mm 2 mps 704 mmHg 69%
    20:00 +14°C° 1.3 mm 2 mps 704 mmHg 75%
    21:00 +13°C° 0.4 mm 2 mps 704 mmHg 77%
    22:00 +13°C° 0.4 mm 2 mps 704 mmHg 79%
    23:00 +12°C° 0.4 mm 1 mps 704 mmHg 81%
    Show more